Voss, Norway 16 day weather forecast

Slopes altitude range -1 m - -1m

Number of lifts: -1 Pistes: -1km

In some cases the lift and piste totals shown are for the ski domain (e.g. Three Valleys) rather than individual resort (e.g. Courchevel)

Overview

The 16 day weather forecast is fully updated 4 times every day.

    • Wed 26 JUN 2019
    • Wed 26
    • 9C 15C
    • Thu 27 JUN 2019
    • Thu 27
    • 8C 13C
    • Fri 28 JUN 2019
    • Fri 28
    • 10C 15C
    • Sat 29 JUN 2019
    • Sat 29
    • 11C 19C
    • Sun 30 JUN 2019
    • Sun 30
    • 12C 15C
    • Mon 01 JUL 2019
    • Mon 01
    • 7C 10C
    • Tue 02 JUL 2019
    • Tue 02
    • 3C 6C
    • Wed 03 JUL 2019
    • Wed 03
    • 3C 6C
    • Thu 04 JUL 2019
    • Thu 04
    • 8C 13C
    • Fri 05 JUL 2019
    • Fri 05
    • 7C 10C
    • Sat 06 JUL 2019
    • Sat 06
    • 7C 10C
    • Sun 07 JUL 2019
    • Sun 07
    • 5C 12C
    • Mon 08 JUL 2019
    • Mon 08
    • 6C 12C
    • Tue 09 JUL 2019
    • Tue 09
    • 10C 17C
    • Wed 10 JUL 2019
    • Wed 10
    • 12C 19C
    • Thu 11 JUL 2019
    • Thu 11
    • 13C 16C

Date:

Time Type 0°C level Temp Chill Snow Cloud Speed Gust Dir Press
3:00 2790m 4°C 4_1 0cm 61% 1mph 1mph 1020mB
6:00 2732m 4°C 4_3 0cm 80% 3mph 3mph 1020mB
9:00 2698m 9°C 9_6 0cm 100% 6mph 8mph 1019mB
12:00 2720m 15°C 15_7 0cm 77% 7mph 8mph 1018mB
15:00 2750m 16°C 16_14 0cm 30% 14mph 14mph 1017mB
18:00 2638m 16°C 16_6 0cm 36% 6mph 9mph 1018mB
21:00 2473m 9°C 9_1 0cm 94% 1mph 2mph 1020mB
0:00 2399m 6°C 6_4 0cm 82% 4mph 5mph 1023mB
3:00 2368m 5°C 5_7 0cm 1% 7mph 7mph 1024mB
6:00 2428m 5°C 5_7 0cm 1% 7mph 8mph 1024mB
9:00 2496m 8°C 8_8 0cm 0% 8mph 9mph 1023mB
12:00 2764m 13°C 13_8 0cm 8% 8mph 9mph 1022mB
15:00 2841m 14°C 14_8 0cm 7% 8mph 9mph 1022mB
18:00 2830m 14°C 14_9 0cm 18% 9mph 11mph 1022mB
21:00 2845m 8°C 8_8 0cm 0% 8mph 9mph 1024mB
0:00 2828m 6°C 6_8 0cm 12% 8mph 9mph 1025mB
3:00 2713m 5°C 5_6 0cm 1% 6mph 7mph 1026mB
6:00 3020m 5°C 5_6 0cm 35% 6mph 6mph 1024mB
9:00 3326m 10°C 10_7 0cm 19% 7mph 9mph 1023mB
12:00 3358m 15°C 15_7 0cm 35% 7mph 12mph 1021mB
15:00 3633m 16°C 16_10 0cm 95% 10mph 14mph 1020mB
18:00 3682m 16°C 16_8 0cm 90% 8mph 16mph 1019mB
21:00 3478m 10°C 10_5 0cm 72% 5mph 6mph 1020mB
0:00 3995m 8°C 8_5 0cm 65% 5mph 6mph 1020mB
3:00 3950m 7°C 7_6 0cm 31% 6mph 6mph 1019mB
6:00 3847m 7°C 7_6 0cm 47% 6mph 6mph 1018mB
9:00 3950m 11°C 11_4 0cm 97% 4mph 7mph 1016mB
12:00 4081m 19°C 19_8 0cm 80% 8mph 13mph 1014mB
15:00 4191m 20°C 20_12 0cm 20% 12mph 17mph 1012mB
18:00 4097m 20°C 20_7 0cm 60% 7mph 11mph 1010mB
21:00 4138m 12°C 12_3 0cm 100% 3mph 4mph 1009mB
0:00 3822m 11°C 11_4 0cm 100% 4mph 5mph 1006mB
3:00 3774m 12°C 12_5 0cm 100% 5mph 5mph 1003mB
6:00 3484m 12°C 12_8 0cm 100% 8mph 11mph 1000mB
9:00 3032m 13°C 13_12 0cm 50% 12mph 22mph 998mB
12:00 2647m 15°C 15_22 0cm 48% 22mph 28mph 998mB
15:00 2395m 13°C 13_20 0cm 64% 20mph 29mph 998mB
18:00 2308m 14°C 14_15 0cm 65% 15mph 24mph 998mB
21:00 2174m 8°C 8_6 0cm 100% 6mph 19mph 999mB
0:00 2195m 7°C 7_4 0cm 100% 4mph 9mph 998mB
3:00 1940m 5°C 5_8 0cm 85% 8mph 23mph 998mB
6:00 1965m 5°C 5_8 0cm 56% 8mph 21mph 996mB
9:00 2049m 7°C 7_12 0cm 100% 12mph 19mph 996mB
12:00 2107m 10°C 10_8 0cm 100% 8mph 12mph 996mB
15:00 2085m 9°C 9_7 0cm 100% 7mph 16mph 996mB
18:00 2038m 9°C 9_6 0cm 100% 6mph 10mph 998mB
21:00 1902m 5°C 5_8 0cm 99% 8mph 11mph 1001mB
0:00 1590m 2°C 2_7 0cm 85% 7mph 9mph 1005mB
3:00 1344m -1°C -1_6 0cm 6% 6mph 6mph 1007mB
6:00 1420m -1°C -1_6 1cm 21% 6mph 10mph 1009mB
9:00 1526m 3°C 3_14 0cm 78% 14mph 18mph 1009mB
12:00 1649m 6°C 6_16 0cm 72% 16mph 20mph 1011mB
15:00 1627m 7°C 7_14 0cm 11% 14mph 16mph 1012mB
18:00 1621m 7°C 7_11 0cm 6% 11mph 13mph 1013mB
21:00 1492m 1°C 1_6 0cm 55% 6mph 6mph 1015mB
0:00 1081m -1°C -1_6 0cm 59% 6mph 6mph 1016mB
3:00 1225m -1°C -1_7 0cm 100% 7mph 6mph 1016mB
6:00 1496m -1°C -1_4 0cm 100% 4mph 6mph 1015mB
9:00 1691m 3°C 3_6 0cm 100% 6mph 6mph 1013mB
12:00 2161m 6°C 6_8 0cm 100% 8mph 8mph 1011mB
15:00 2391m 12°C 12_6 0cm 100% 6mph 15mph 1009mB
18:00 2254m 13°C 13_7 0cm 100% 7mph 22mph 1008mB
21:00 1931m 7°C 7_6 0cm 83% 6mph 22mph 1008mB
0:00 1697m 2°C 2_6 0cm 41% 6mph 9mph 1010mB
3:00 1552m 0°C 0_4 0cm 0% 4mph 5mph 1011mB
6:00 1579m 0°C 0_2 0cm 7% 2mph 7mph 1011mB
9:00 1858m 8°C 8_5 0cm 56% 5mph 10mph 1011mB
12:00 2012m 13°C 13_11 0cm 38% 11mph 14mph 1011mB
15:00 2092m 14°C 14_13 0cm 0% 13mph 14mph 1010mB
18:00 2177m 14°C 14_8 0cm 33% 8mph 11mph 1010mB
21:00 2308m 6°C 6_3 0cm 100% 3mph 4mph 1010mB
0:00 2190m 4°C 4_2 0cm 99% 2mph 3mph 1009mB
3:00 2323m 6°C 6_1 0cm 100% 1mph 2mph 1008mB
6:00 2377m 6°C 6_4 0cm 100% 4mph 9mph 1007mB
9:00 2241m 7°C 7_6 0cm 100% 6mph 11mph 1006mB
12:00 2268m 10°C 10_6 0cm 100% 6mph 11mph 1004mB
15:00 2229m 11°C 11_3 0cm 100% 3mph 5mph 1001mB
18:00 2296m 11°C 11_4 0cm 100% 4mph 8mph 999mB
21:00 2258m 7°C 7_5 0cm 100% 5mph 7mph 998mB
0:00 2180m 7°C 7_4 0cm 100% 4mph 4mph 997mB
Afternoon 0.0208333mm 0.0625 1735m 10°C 10_12 0cm 100% 12mph 16mph 1005mB
Morning 0mm 0 1303m 0°C 0_3 0cm 0% 3mph 4mph 1014mB
Afternoon 0mm 0 1890m 12°C 12_10 0cm 4% 10mph 13mph 1013mB
Morning 0.0416667mm 0 1733m 4°C 4_3 0cm 48% 3mph 3mph 1016mB
Afternoon 0.0416667mm 0.125 1915m 12°C 12_3 0cm 91% 3mph 4mph 1014mB
Morning 0.0208333mm 0.0625 2127m 3°C 3_0 0cm 37% 0mph 1mph 1016mB
Afternoon 0mm 0 2397m 17°C 17_5 0cm 0% 5mph 7mph 1012mB
Morning 0mm 0 2826m 5°C 5_3 0cm 0% 3mph 4mph 1013mB
Afternoon 0mm 0 3319m 19°C 19_7 0cm 33% 7mph 8mph 1008mB
Morning 0mm 0 3251m 7°C 7_2 0cm 58% 2mph 4mph 1009mB
Afternoon 0.0416667mm 0 3360m 16°C 16_5 0cm 100% 5mph 7mph 1006mB
Morning 0mm 0 3403m 10°C 10_2 0cm 100% 2mph 3mph 1010mB

16 day outlook at a glance

Forecast issued: 6/26/2019 8:27:34 AM

Chat

Your comments and questions. In a resort? Let us know what it's like!


Characters left 250

For terms and conditions see Readers Comments on the Cookie and privacy policy page.